Flag for Germany Weather past 2 weeks in Burgdorf, Lower Saxony, Germany

Now
55 °F

Broken clouds.


Feels Like: 55 °F
Forecast: 45 / 56 °F
Wind: 5 mph from West

Location: Celle Airport

Current Time: Oct 23, 2014 at 4:32:38 PM

Latest Report: Oct 23, 2014 at 3:20 PM


Visibility: N/A

Pressure: 30.18 "Hg

Humidity: 67%

Dew point: 45 °F

Location of BurgdorfLocation

Historic Weather in Burgdorf — Graph

°F

Burgdorf temperature yesterday

Maximum temperature yesterday: 54 °F (at 2:20 PM)
Minimum temperature yesterday: 46 °F (at 3:20 AM)
Average temperature yesterday: 49 °F

Past Weeks' High & Low Weather Summary

 TemperatureHumidityPressure
High73 °F (Oct 19, 3:20 PM)100% (Oct 8, 10:20 PM)30.18 "Hg (Oct 8, 10:20 PM)
Low46 °F (Oct 17, 5:20 AM)52% (Oct 14, 2:20 PM)29.42 "Hg (Oct 21, 6:20 PM)
Average56 °F89%29.84 "Hg
* Reported Oct 8 3:20 PM — Oct 23 3:20 PM, Burgdorf, Weather by CustomWeather, © 2014

Note: Actual official high and low records may vary slightly from our data, if they occured in-between our weather recording intervals... More about our weather records

Advertising

Burgdorf weather history for previous 24 hours

 ConditionsComfort  
Time TempWeatherWind HumidityBarometerVisibility
3:20 PM
Oct 23
55 °FBroken clouds.5 mph67%30.18 "HgN/A
2:20 PM55 °FBroken clouds.6 mph72%30.18 "HgN/A
1:20 PM55 °FBroken clouds.7 mph67%30.18 "HgN/A
12:20 PM55 °FPartly sunny.5 mph72%30.18 "HgN/A
11:20 AM54 °FPartly sunny.5 mph72%30.18 "HgN/A
10:20 AM50 °FPartly sunny.5 mph82%30.18 "HgN/A
9:20 AM46 °FBroken clouds.2 mph93%30.18 "HgN/A
8:20 AM48 °FPassing clouds.3 mph82%30.15 "HgN/A
7:20 AM46 °FPassing clouds.3 mph87%30.15 "HgN/A
6:20 AM48 °FPassing clouds.2 mph82%30.12 "HgN/A
5:20 AM48 °FPassing clouds.3 mph82%30.12 "HgN/A
4:20 AM48 °FPassing clouds.6 mph82%30.09 "HgN/A
3:20 AM48 °FOvercast.6 mph87%30.09 "HgN/A
2:20 AM48 °FPartly cloudy.6 mph87%30.07 "Hg6 mi
1:20 AM48 °FPassing clouds.5 mph94%30.07 "Hg5 mi
12:20 AM48 °FPartly cloudy.7 mph94%30.04 "Hg4 mi
11:20 PM
Oct 22
50 °FPartly cloudy.9 mph88%30.04 "Hg4 mi
10:49 PM50 °FPartly cloudy.10 mph94%30.01 "Hg4 mi
10:20 PM50 °FPartly cloudy.9 mph94%30.01 "Hg4 mi
9:20 PM50 °FPassing clouds.10 mph100%29.98 "HgN/A
8:51 PM52 °FPassing clouds.9 mph94%29.98 "HgN/A
8:20 PM52 °FPartly cloudy.9 mph94%29.95 "Hg5 mi
7:20 PM52 °FPassing clouds.9 mph94%29.92 "HgN/A
6:20 PM52 °FBroken clouds.9 mph94%29.89 "HgN/A
5:20 PM52 °FDrizzle. Partly sunny.8 mph100%29.86 "Hg4 mi
4:45 PM54 °FDrizzle. Partly sunny.10 mph94%29.83 "Hg1 mi
4:20 PM52 °FDrizzle. Partly sunny.8 mph100%29.83 "HgN/A
Weather by CustomWeather, © 2014

See weather overviewHow to use our weather pages